Terminal Aerodrome Forecast
Issued by NWS Charleston, WV

Current Version | Previous Version | Graphics & Text | Print | Product List | Glossary On
Versions: 1 2 3 4 5 6 7 8 9 10 11 12 13 14 15 16 17 18 19 20 21 22 23
000
FTUS41 KRLX 252321
TAFBKW
TAF
KBKW 252321Z 2600/2624 29005KT P6SM FEW080
     FM260500 00000KT P6SM FEW250
     FM261500 28007KT P6SM SCT150
     FM261800 28007KT P6SM SCT050=

USA.gov is the U.S. government's official web portal to all federal, state and local government web resources and services.